Preview of NWS' New Version of Forecast
This preview is not operational and should not be used for support decisions.

Regional Weather Roundup (RWR)

Issued by National Weather Service (NWS)

                            
000
ASUS45 KABQ 200001
RWRNM 
NEW MEXICO REGIONAL WEATHER ROUNDUP
NATIONAL WEATHER SERVICE ALBUQUERQUE NM
500 PM MST TUE FEB 19 2019

NOTE: "FAIR" MEANS FEW OR NO CLOUDS BELOW 12,000 FEET AGL WITH NO
       SIGNIFICANT WEATHER OR OBSTRUCTIONS TO VISION.

      THIS PRODUCT IS RELEASED AS TWO VERSIONS.  ONE VERSION NEAR
      THE TOP OF THE HOUR CONTAINING PRELIMINARY DATA FROM ALBUQUERQUE
      AND OTHER STATIONS.  A FINAL VERSION WITH ADDITIONAL DATA IS 
      ISSUED ABOUT 10 MINUTES AFTER THE HOUR.
 
NMZ501-503-504-510>518-200100-
NORTHWEST PLATEAU/NORTHCENTRAL MOUNTAINS
  
CITY           SKY/WX    TMP DP  RH WIND       PRES   REMARKS
FARMINGTON     PTSUNNY   26  20  77 W12       29.75R WCI  16          
6HR MIN TEMP:  25; 6HR MAX TEMP:  30; 6HR PCP:  0.02;                

LOS ALAMOS     LGT SNOW  22  16  79 SW10G18   29.68S WCI  11          
SANTA FE       FAIR      25  17  72 SW14      29.71F WCI  13          
6HR MIN TEMP:  21; 6HR MAX TEMP:  29; 6HR PCP: TRACE;                

TAOS           FLURRIES  22  18  85 W15       29.67S WCI   9          
ANGEL FIRE     LGT SNOW  17  12  78 SW10      29.60S WCI   5          

$$
NMZ402-403-502-505>509-200100-
WESTCENTRAL MOUNTAINS/SOUTHWEST MOUNTAINS
  
CITY           SKY/WX    TMP DP  RH WIND       PRES   REMARKS
GALLUP         CLOUDY    23  19  85 W8        29.79R WCI  14          
6HR MIN TEMP:  21; 6HR MAX TEMP:  29; 6HR PCP:  0.02;                

GRANTS         FAIR      26  10  49 W16G23    29.77S WCI  14          
SILVER CITY    PTSUNNY   32  22  65 W17G23    29.88R WCI  21          

$$
NMZ407-409-411-412-200100-
SOUTHERN DESERTS
  
CITY           SKY/WX    TMP DP  RH WIND       PRES   REMARKS
DEMING         PTSUNNY   38  22  52 W20G26    29.90  WCI  28          
6HR MIN TEMP:  37; 6HR MAX TEMP:  45;                                

LAS CRUCES     FAIR      42  15  33 W24G35    29.88S                  
ALAMOGORDO     FAIR      43  14  31 MISG      29.85R                  
T OR C         FAIR      40  14  34 W14       29.80  WCI  32          
6HR MIN TEMP:  36; 6HR MAX TEMP:  46; 6HR PCP: TRACE;                


$$
NMZ519>523-200100-
CENTRAL VALLEYS/CENTRAL HIGHLANDS
  
CITY           SKY/WX    TMP DP  RH WIND       PRES   REMARKS
ALBUQUERQUE    MOCLDY    34  11  38 W23G30    29.77  WCI  22          
6HR MIN TEMP:  26; 6HR MAX TEMP:  35; 6HR PCP: TRACE;                

DOUBLE EAGLE   MOCLDY    30  18  59 W14G25    29.76  WCI  20          
CLINES CORNERS CLOUDY    21  16  81 W13       29.71S WCI   9          
6HR MIN TEMP:  14; 6HR MAX TEMP:  23; 6HR PCP:  0.02;                

BELEN          MOCLDY    32  22  66 SW12      29.79R WCI  23          
6HR MIN TEMP:  27; 6HR MAX TEMP:  34;                                

SOCORRO        NOT AVBL                                               

$$
NMZ524>526-539-540-200100-
SOUTHCENTRAL MOUNTAINS
  
CITY           SKY/WX    TMP DP  RH WIND       PRES   REMARKS
RUIDOSO        NOT AVBL                                               

$$
NMZ527>531-200100-
NORTHEAST HIGHLANDS/NORTHEAST PLAINS
  
CITY           SKY/WX    TMP DP  RH WIND       PRES   REMARKS
LAS VEGAS      FAIR      20  17  88 S17       29.66  WCI   5          
6HR MIN TEMP:  14; 6HR MAX TEMP:  22; 6HR PCP: TRACE;                

RATON          CLOUDY    21  16  81 S10       29.65F HAZE    WCI  10  
6HR MIN TEMP:  16; 6HR MAX TEMP:  21; 6HR PCP: TRACE;                

CLAYTON        CLOUDY    20  16  84 S15       29.75F WCI   6          
6HR MIN TEMP:  16; 6HR MAX TEMP:  20;                                


$$
NMZ532>537-200100-
EASTCENTRAL PLAINS
  
CITY           SKY/WX    TMP DP  RH WIND       PRES   REMARKS
SANTA ROSA     FAIR      27  19  70 S7        29.78S WCI  19          
TUCUMCARI      CLOUDY    29  19  66 S6        29.79  WCI  23          
6HR MIN TEMP:  23; 6HR MAX TEMP:  29;                                

CANNON AFB     NOT AVBL                                               
CLOVIS AIRPORT NOT AVBL                                               

$$
NMZ028-029-538-200100-
SOUTHEAST PLAINS
  
CITY           SKY/WX    TMP DP  RH WIND       PRES   REMARKS
ROSWELL        MOCLDY    38  19  46 S7        29.80F WCI  33          
6HR MIN TEMP:  28; 6HR MAX TEMP:  39;                                

ARTESIA        FAIR      37  19  48 SE14      29.82F WCI  29          
CARLSBAD       FAIR      36  21  54 SE8       29.83  WCI  30          
6HR MIN TEMP:  28; 6HR MAX TEMP:  38; 6HR PCP: TRACE;                

HOBBS          CLEAR     36  21  55 S3        29.86S                  


$$